Location: Arrodets-la-Barthe
(43.0306°N, 0.2829°E)
Time: 18:26:46
(UTC+00:00)

NOAA 6 - Pass Details

Date: 24 October 2021
Orbit: 771 x 787 km, 98.7° (Epoch: 01 December)

Event Time Altitude Azimuth Distance (km) Brightness Sun altitude
Rises 17:27:25 0° 169° (S) 3,263 7.3 -5.4°
Reaches altitude 10° 17:29:44 10° 171° (S) 2,340 6.6 -5.8°
Maximum altitude 17:34:54 75° 257° (WSW) 817 4.4 -6.7°
Drops below altitude 10° 17:40:07 10° 343° (NNW) 2,358 6.6 -7.6°
Sets 17:42:27 0° 345° (NNW) 3,291 7.4 -8.1°
